Weather History for PAMR - March, 2013

Change the Weather History Date:

Thursday, March 28, 2013

  Actual Average Record
Temperature  
Mean Temperature 20 °F -  
Max Temperature 27 °F 34 °F 48 °F (2015)
Min Temperature 14 °F 19 °F 1 °F (2007)
Degree Days  
Heating Degree Days 44    
Moisture  
Dew Point 14 °F    
Average Humidity 77    
Maximum Humidity 89    
Minimum Humidity 54    
Precipitation  
Precipitation 0.00 in - - ()
Snow  
Snow 0.00 in - - ()
Snow Depth 16.00 in    
Sea Level Pressure  
Sea Level Pressure 30.09 in    
Wind  
Wind Speed 6 mph (North)    
Max Wind Speed 10 mph    
Max Gust Speed -    
Visibility 9 miles    
Events Snow    
Averages and records for this station are not official NWS values.
T = Trace of Precipitation, MM = Missing Value Source: NWS Daily Summary

Daily Weather History Graph

Daily Weather History Graph

Search for Another Location

Airport or City:

Trip Planner

Search our weather history database for the weather conditions in past years. The results will help you decide how hot, cold, wet, or windy it might be!

Date:

Astronomy

Mar. 28, 2013 Rise Set
Actual Time 7:33 AM AKDT 8:36 PM AKDT
Civil Twilight 6:49 AM AKDT 9:20 PM AKDT
Nautical Twilight 5:55 AM AKDT 10:15 PM AKDT
Astronomical Twilight 4:52 AM AKDT 11:19 PM AKDT
Moon 11:26 PM AKDT (3/28) 7:34 AM AKDT (3/28)
Length of Visible Light 14h 30m
Length of Day
13h 02m
Full, 97% of the Moon is Illuminated
Mar 28
Full
Apr 2
Last Quarter
Apr 10
New
Apr 18
First Quarter
Apr 25
Full

Hourly Weather History & Observations

Time (AKDT) Temp. Windchill Dew Point Humidity Pressure Visibility Wind Dir Wind Speed Gust Speed Precip Events Conditions
12:53 AM 17.1 °F 8.7 °F 3.0 °F 54% 30.22 in 10.0 mi North 5.8 mph - N/A   Overcast
1:53 AM 16.0 °F 4.4 °F 3.9 °F 59% 30.20 in 10.0 mi North 9.2 mph - N/A   Overcast
2:53 AM 15.1 °F 7.7 °F 7.0 °F 70% 30.19 in 9.0 mi North 4.6 mph - 0.00 in Snow Light Snow
3:53 AM 15.1 °F - 7.0 °F 70% 30.19 in 10.0 mi Calm Calm - 0.00 in Snow Light Snow
4:53 AM 15.1 °F 9.4 °F 7.0 °F 70% 30.19 in 10.0 mi North 3.5 mph - 0.00 in Snow Light Snow
5:53 AM 14.0 °F 6.5 °F 9.0 °F 80% 30.17 in 9.0 mi North 4.6 mph - 0.00 in Snow Light Snow
6:53 AM 15.1 °F 6.4 °F 10.9 °F 84% 30.16 in 7.0 mi North 5.8 mph - 0.00 in Snow Light Snow
7:53 AM 14.0 °F 2.0 °F 10.0 °F 84% 30.14 in 2.5 mi North 9.2 mph - 0.00 in Snow Light Snow
8:02 AM 14.0 °F 2.9 °F 10.4 °F 86% 30.13 in 3.0 mi NNW 8.1 mph - 0.00 in Snow Light Snow
8:53 AM 15.1 °F 5.2 °F 10.9 °F 84% 30.14 in 3.0 mi North 6.9 mph - 0.00 in Snow Light Snow
9:53 AM 16.0 °F 5.3 °F 10.9 °F 81% 30.12 in 7.0 mi North 8.1 mph - 0.00 in Snow Light Snow
10:53 AM 17.1 °F 6.6 °F 12.0 °F 81% 30.13 in 10.0 mi North 8.1 mph - 0.00 in   Overcast
11:53 AM 19.0 °F 9.0 °F 12.0 °F 74% 30.11 in 10.0 mi North 8.1 mph - N/A   Overcast
12:53 PM 21.0 °F 12.4 °F 14.0 °F 74% 30.09 in 10.0 mi NNW 6.9 mph - N/A   Mostly Cloudy
1:53 PM 24.1 °F 15.2 °F 14.0 °F 65% 30.07 in 10.0 mi North 8.1 mph - N/A   Overcast
2:53 PM 25.0 °F 17.1 °F 16.0 °F 69% 30.05 in 10.0 mi NNW 6.9 mph - N/A   Overcast
3:53 PM 26.1 °F 16.2 °F 17.1 °F 69% 30.04 in 10.0 mi North 10.4 mph - N/A   Overcast
4:53 PM 27.0 °F 18.7 °F 18.0 °F 69% 30.02 in 5.0 mi NNW 8.1 mph - 0.00 in Snow Light Snow
5:53 PM 27.0 °F 17.3 °F 21.0 °F 78% 30.00 in 10.0 mi North 10.4 mph - 0.00 in   Overcast
6:53 PM 27.0 °F 18.0 °F 23.0 °F 85% 29.99 in 10.0 mi NNW 9.2 mph - N/A   Overcast
7:53 PM 27.0 °F 23.0 °F 24.1 °F 89% 29.98 in 10.0 mi NNW 3.5 mph - N/A   Overcast
8:53 PM 26.1 °F - 23.0 °F 88% 29.97 in 10.0 mi Calm Calm - N/A   Overcast
9:53 PM 26.1 °F - 23.0 °F 88% 29.97 in 10.0 mi Calm Calm - N/A   Overcast
10:53 PM 26.1 °F 21.9 °F 23.0 °F 88% 29.97 in 10.0 mi WSW 3.5 mph - N/A   Overcast
11:53 PM 25.0 °F - 21.9 °F 88% 29.95 in 10.0 mi Calm Calm - N/A   Overcast